Wind_Speed
8 9 8 7 6 6 7 8 9 9 8 7 6 4 3 4 5 5 3 8 8 6 7 6 9 10 5 5 5 5 5 4 4
11 10 11 11 9 8 8 9 10 9 10 9 8 7 6 5 6 5 5 10 10 8 9 8 8 10 12 10 10 9 8 8 6
11 11 12 13 13 12 12 11 12 10 11 11 10 10 9 9 8 9 9 11 13 11 11 14 13 10 9 11 9 10 9 5 7
14 13 14 14 14 14 14 15 14 13 14 13 13 12 12 12 11 13 13 13 15 14 13 13 16 15 15 13 10 10 10 10 10
16 15 16 16 15 15 15 16 16 16 16 15 16 16 16 16 15 14 16 15 15 17 15 12 15 15 12 12 15 13 13 12 11
18 18 17 16 17 19 19 19 20 20 19 19 18 18 21 20 19 18 17 19 20 21 19 16 16 17 16 15 15 18 17 14 13
20 21 21 21 19 19 20 22 24 24 24 23 23 24 24 23 23 21 18 19 22 21 19 19 19 19 19 18 19 18 18 16 15
22 23 23 23 20 18 17 18 19 22 26 28 28 27 27 26 25 22 18 18 21 21 23 21 22 22 22 21 20 20 21 19 18
22 22 22 22 22 22 19 20 21 21 21 23 25 26 26 26 25 24 22 22 19 22 27 25 24 25 24 24 24 23 23 22 22
23 23 22 23 24 26 27 27 24 21 21 23 25 25 27 31 30 29 25 27 25 26 28 29 27 27 28 27 26 26 25 25 25
19 20 21 23 24 26 27 28 29 31 28 24 24 26 26 26 29 32 32 32 30 29 29 31 30 29 27 30 29 28 28 27 26
17 17 17 18 20 23 26 27 29 30 30 32 33 28 26 27 27 27 28 32 34 33 34 36 33 33 31 28 30 30 29 29 29
17 18 17 17 18 18 20 22 25 28 29 31 32 35 37 33 28 28 30 32 30 33 34 36 37 38 35 34 32 32 33 31 31
18 18 17 18 19 19 19 20 21 24 26 28 30 31 32 33 32 29 26 29 31 31 31 32 34 35 37 35 37 34 34 36 35
18 19 20 20 21 21 20 20 19 19 21 23 25 27 28 31 31 35 34 30 30 31 30 30 32 33 33 36 36 37 37 38 39
17 18 20 21 22 22 22 21 20 19 19 22 25 25 26 24 24 24 32 35 32 31 32 34 39 37 34 34 35 36 38 39 38
17 18 18 18 19 20 21 20 19 17 15 17 20 14 19 15 12 15 20 23 21 23 27 27 28 31 33 34 32 34 38 39 39
17 17 16 17 17 17 18 16 14 14 13 12 12 9 6 18 18 20 22 23 22 20 19 17 16 17 21 29 33 30 32 33 39
16 15 14 13 12 10 9 7 8 11 15 13 13 15 17 15 16 19 22 22 22 22 19 21 22 19 20 18 20 26 27 28 33
15 14 13 10 9 8 6 3 7 10 15 16 20 20 19 19 20 24 24 26 24 23 24 24 24 25 26 27 21 20 23 26 29
Wind_Direction
285 291 284 287 289 286 277 275 275 281 285 295 295 287 249 200 197 186 208 269 280 292 269 228 213 223 209 220 155 179 177 184 180
287 288 289 281 281 285 285 281 276 274 274 278 282 278 264 240 231 225 213 270 276 270 250 249 239 234 241 241 211 185 189 200 185
290 290 285 285 281 280 281 282 278 272 272 274 273 272 267 257 247 232 233 258 282 281 268 253 247 245 243 246 227 222 219 206 216
290 282 281 286 283 283 283 282 281 283 276 274 274 271 268 262 251 232 241 245 276 280 274 266 240 241 250 240 236 237 223 208 224
275 278 276 278 280 277 274 276 275 276 280 278 278 277 271 265 261 250 244 250 255 269 272 271 235 239 240 246 232 224 226 227 225
270 270 273 278 276 274 273 273 272 269 267 270 272 272 273 275 268 261 255 247 252 258 266 270 252 246 247 253 240 232 236 232 233
266 270 273 276 277 276 276 273 272 271 270 271 272 272 275 275 273 269 265 255 246 253 263 266 261 251 251 248 252 251 243 236 236
268 267 266 267 270 272 275 275 274 276 275 274 272 271 274 274 272 270 272 265 247 252 264 270 266 259 254 251 249 247 251 242 238
272 269 266 263 261 262 263 270 272 271 278 280 279 273 271 269 271 273 265 268 260 254 261 269 272 263 255 253 252 248 251 254 247
277 276 273 267 262 258 257 256 258 259 261 266 275 279 279 271 270 268 267 263 260 252 256 264 268 269 261 254 253 253 252 254 254
283 281 279 275 270 267 265 264 259 254 255 257 259 264 269 273 274 270 267 264 258 256 250 255 265 268 267 261 254 253 255 255 255
291 291 290 286 279 272 266 264 263 264 262 260 256 258 262 267 273 273 274 270 267 260 254 256 261 264 266 265 262 256 256 256 255
297 296 295 294 289 282 275 271 267 264 264 266 262 258 257 260 266 270 275 273 272 268 265 258 259 261 262 266 267 261 256 255 255
299 298 297 292 287 283 280 277 275 274 271 271 270 267 264 260 256 257 264 268 271 273 271 267 263 261 261 263 264 263 260 256 255
297 295 293 292 289 285 279 276 274 275 278 279 276 271 268 265 262 258 261 263 265 270 272 274 273 273 269 263 257 262 260 263 251
299 297 295 294 291 288 282 279 279 278 280 287 288 283 273 274 276 275 264 261 265 268 272 276 279 278 275 271 270 265 266 266 266
304 306 307 306 299 289 282 277 273 276 289 299 304 313 309 295 290 276 270 272 276 275 271 274 274 278 275 274 271 265 262 264 265
315 316 313 311 304 301 289 288 261 280 284 291 293 309 296 303 286 288 287 288 284 279 277 285 289 285 288 282 278 273 267 262 261
320 317 313 312 318 318 305 291 247 268 279 279 273 277 287 305 305 300 294 294 295 292 284 281 275 275 276 286 285 281 279 273 267
318 315 311 308 315 325 309 263 257 264 275 279 280 279 279 277 289 303 298 289 285 285 287 285 281 274 272 271 276 274 275 274 274
Height
1549 1549 1548 1548 1547 1547 1547 1546 1546 1546 1546 1546 1545 1546 1546 1546 1545 1545 1544 1545 1545 1544 1544 1543 1543 1544 1544 1544 1544 1545 1545 1545 1544
1547 1547 1547 1546 1546 1545 1545 1544 1544 1544 1543 1543 1543 1544 1544 1544 1544 1544 1544 1544 1544 1544 1543 1543 1542 1542 1542 1543 1543 1543 1544 1543 1543
1545 1545 1545 1545 1544 1543 1543 1542 1542 1542 1541 1541 1541 1541 1542 1542 1542 1542 1542 1542 1542 1542 1542 1541 1541 1541 1541 1541 1541 1541 1541 1541 1542
1543 1542 1542 1542 1542 1541 1541 1539 1539 1539 1539 1539 1539 1539 1539 1539 1539 1540 1539 1539 1540 1540 1539 1539 1539 1539 1539 1540 1540 1539 1539 1540 1540
1539 1539 1539 1539 1539 1538 1537 1537 1536 1536 1536 1536 1536 1536 1536 1535 1536 1537 1537 1536 1537 1537 1537 1537 1537 1537 1537 1537 1538 1539 1538 1538 1538
1535 1535 1535 1535 1535 1535 1534 1533 1533 1532 1532 1532 1532 1533 1532 1532 1532 1533 1533 1534 1533 1534 1534 1535 1535 1535 1535 1535 1536 1536 1535 1536 1536
1531 1530 1530 1530 1530 1530 1529 1529 1529 1529 1528 1528 1528 1528 1527 1528 1527 1528 1529 1530 1530 1530 1531 1531 1532 1532 1532 1533 1533 1533 1533 1533 1534
1526 1526 1525 1525 1524 1524 1524 1524 1524 1524 1523 1523 1523 1523 1523 1523 1523 1523 1525 1526 1526 1526 1527 1528 1528 1528 1528 1529 1529 1530 1530 1531 1531
1520 1519 1519 1519 1519 1518 1519 1519 1519 1519 1519 1518 1518 1517 1517 1517 1518 1519 1520 1520 1521 1522 1522 1523 1524 1524 1524 1524 1525 1526 1527 1527 1528
1514 1513 1513 1513 1513 1513 1512 1513 1513 1513 1513 1512 1512 1512 1512 1512 1512 1513 1514 1515 1516 1516 1517 1517 1519 1519 1519 1520 1520 1521 1522 1523 1524
1508 1508 1508 1507 1507 1507 1506 1506 1506 1506 1506 1506 1506 1506 1507 1507 1506 1507 1508 1508 1509 1510 1511 1512 1512 1513 1514 1514 1515 1516 1517 1518 1519
1505 1504 1503 1502 1501 1500 1499 1499 1499 1498 1499 1499 1500 1500 1501 1501 1501 1501 1502 1502 1503 1504 1505 1505 1507 1507 1508 1508 1509 1510 1511 1512 1514
1501 1499 1498 1497 1496 1495 1494 1493 1492 1491 1491 1491 1491 1492 1493 1494 1495 1494 1495 1496 1496 1496 1498 1498 1500 1500 1502 1503 1503 1503 1505 1506 1507
1497 1495 1494 1492 1491 1489 1488 1487 1487 1485 1485 1484 1483 1484 1484 1485 1487 1487 1488 1488 1489 1489 1490 1491 1493 1494 1495 1496 1497 1496 1497 1498 1500
1493 1491 1489 1488 1486 1485 1484 1482 1482 1481 1480 1478 1477 1477 1477 1478 1478 1479 1481 1482 1483 1483 1484 1484 1485 1486 1488 1489 1487 1490 1489 1491 1491
1489 1487 1485 1483 1481 1480 1479 1478 1478 1477 1477 1475 1473 1471 1471 1471 1472 1473 1474 1475 1476 1477 1477 1477 1477 1478 1479 1480 1481 1482 1483 1483 1483
1485 1482 1480 1478 1476 1475 1474 1474 1473 1474 1475 1473 1472 1468 1467 1467 1467 1468 1468 1468 1469 1468 1469 1469 1468 1469 1469 1470 1472 1473 1474 1476 1477
1481 1478 1476 1474 1472 1470 1469 1470 1470 1470 1471 1472 1473 1469 1467 1465 1465 1464 1464 1464 1463 1464 1464 1463 1463 1463 1462 1461 1462 1463 1465 1466 1467
1477 1475 1473 1471 1469 1467 1466 1466 1467 1469 1468 1469 1470 1469 1468 1466 1461 1460 1460 1460 1459 1459 1458 1457 1457 1457 1457 1455 1455 1455 1456 1456 1457
1475 1472 1470 1468 1467 1465 1465 1465 1466 1467 1467 1466 1465 1464 1464 1463 1462 1456 1455 1455 1455 1454 1453 1452 1451 1451 1450 1449 1448 1449 1448 1448 1448